CZ-4C R/B, 64754

Orbit data source: Space-Track

CZ-4C R/B, 64754 is space debris in LEO originally from a launch on Thu, 03 Jul 2025 UTC launched from the Xichang Space Center, China (XSC). Debris objects in space refer to the collection of defunct objects orbiting the Earth. Examples of debris include non-operational satellites, rocket bodies, and fragments generated from explosions, collisions, or faulty payload assembly.

Not visible in the next 10 days
Identifier
64754, 2025-145B
Orbit
LEO
Country
Flag of CNCN / PRC
Related business
Manufacturer
SAST
Mission
Spacecraft
Bus & Motor
CZ-4 STAGE 3, Unknown motor
Mass
~1,000 kg wet, ~1,000 kg dry
Launch date (UTC)
2025-07-03 (1 year ago)
Launch vehicle
Unknown
Launch site
Xichang Space Center, China (XSC)
Object type
Payload
Rocket body
Debris
Shape & HBR
Cyl, 2.7 m
Radar Cross Section
14.536 m², Large (>1 m²)

Expand to show TLE details & history
Last TLE update: 16 hours ago

TLE from 16 hours ago
0 CZ-4C R/B
1 64754U 25145B   26236.30101109  .00000905  00000-0  70247-4 0  9995
2 64754  10.9847 118.6097 0120817 122.4215 238.7761 14.56760446 60761
Epoch: 2026-08-24T07:13Z
TLE epoch observation values (Epoch: 2026-08-24T07:13:27.358Z)
Latitude
-0.00001°
Longitude
37.66097°
Altitude
745.865 km
Speed
7.461 km/s
True Right ascension
07h 54m 26s
True Declination
0° 00' 00"
Sunlit
Object was in daylight at epoch
Visualization orbit readout
Latitude
Unknown
Longitude
Unknown
Altitude
Unknown
Speed
Unknown
Apparent Right ascension
Unknown
Apparent Declination
Unknown
Sunlit
N/A
Visualization observer readout
Local Sidereal Time
14:36:31
Azimuth
Unknown
Elevation
Unknown
Doppler factor
Unknown
Orbital elements
Apogee altitude
795.174 km
Perigee altitude
623.912 km
Semi-major axis
7,087.68 km
Eccentricity
0.01208
Inclination
10.9847°
RAAN
118.6097°
Arg. of periapsis
122.4215°
True anomaly
237.60146°
Mean anomaly
238.7761°
Eccentric anomaly
238.18786°
Mean motion
3.63737 °/min
Orbital period
98.97 mins
BSTAR
0.000070247
Loading maneuver chart data...
Computing Atmospheric mass density...
Loading historical data...
Loading historical data...
Loading historical data...
Loading historical data...
Loading historical data...
Loading historical data...
Loading historical data...
Other satellites on launch #145 in the year 2025 (2025-07-03 UTC)

Documentation

Showing up to 5 results
|